| time (UTC) | temp C | wind direction | speed KPH | gust KPH | rain 1hr cm | rain 24hr cm | rain mn cm | humidity % | barometer mb |
| 20260504235017 | 25 | 90 | 0.0 | 0.0 | 0.00 | 0.00 | 0.00 | 38 | 1015.3 |
| 20260504234537 | 25 | 90 | 0.0 | 0.0 | 0.00 | 0.00 | 0.00 | 39 | 1015.3 |
| 20260504234036 | 25 | 90 | 0.0 | 0.0 | 0.00 | 0.00 | 0.00 | 39 | 1015.3 |
| 20260504233537 | 25 | 90 | 0.0 | 1.6 | 0.00 | 0.00 | 0.00 | 37 | 1015.3 |
| 20260504233016 | 25 | 90 | 0.0 | 0.0 | 0.00 | 0.00 | 0.00 | 37 | 1015.3 |
| 20260504232517 | 25 | 90 | 1.6 | 8.0 | 0.00 | 0.00 | 0.00 | 36 | 1015.4 |
| 20260504232037 | 26 | 75 | 0.0 | 0.0 | 0.00 | 0.00 | 0.00 | 35 | 1015.4 |
| 20260504231537 | 26 | 75 | 0.0 | 0.0 | 0.00 | 0.00 | 0.00 | 35 | 1015.3 |
| 20260504231017 | 26 | 68 | 0.0 | 1.6 | 0.00 | 0.00 | 0.00 | 35 | 1015.3 |
| 20260504230517 | 26 | 68 | 0.0 | 1.6 | 0.00 | 0.00 | 0.00 | 33 | 1015.3 |
| 20260504230016 | 26 | 203 | 0.0 | 3.2 | 0.00 | 0.00 | 0.00 | 32 | 1015.3 |
| 20260504225516 | 26 | 203 | 0.0 | 3.2 | 0.00 | 0.00 | 0.00 | 30 | 1015.2 |
| 20260504225016 | 26 | 203 | 0.0 | 3.2 | 0.00 | 0.00 | 0.00 | 29 | 1015.2 |
| 20260504224516 | 26 | 203 | 1.6 | 4.8 | 0.00 | 0.00 | 0.00 | 30 | 1015.1 |
| 20260504224016 | 26 | 158 | 0.0 | 1.6 | 0.00 | 0.00 | 0.00 | 33 | 1015.1 |
| 20260504223516 | 26 | 158 | 0.0 | 3.2 | 0.00 | 0.00 | 0.00 | 32 | 1015.2 |
| 20260504223016 | 26 | 90 | 1.6 | 8.0 | 0.00 | 0.00 | 0.00 | 29 | 1015.2 |
| 20260504222536 | 26 | 68 | 1.6 | 4.8 | 0.00 | 0.00 | 0.00 | 30 | 1015.3 |
| 20260504222016 | 26 | 90 | 1.6 | 6.4 | 0.00 | 0.00 | 0.00 | 30 | 1015.3 |
| 20260504221516 | 26 | 68 | 1.6 | 6.4 | 0.00 | 0.00 | 0.00 | 31 | 1015.3 |
| 20260504221036 | 27 | 293 | 0.0 | 4.8 | 0.00 | 0.00 | 0.00 | 32 | 1015.3 |
| 20260504220516 | 27 | 68 | 0.0 | 4.8 | 0.00 | 0.00 | 0.00 | 33 | 1015.4 |
| 20260504220016 | 27 | 135 | 0.0 | 3.2 | 0.00 | 0.00 | 0.00 | 34 | 1015.4 |
| 20260504215536 | 27 | 135 | 0.0 | 4.8 | 0.00 | 0.00 | 0.00 | 31 | 1015.3 |
| 20260504215016 | 27 | 68 | 0.0 | 4.8 | 0.00 | 0.00 | 0.00 | 30 | 1015.2 |
| 20260504214516 | 27 | 90 | 0.0 | 1.6 | 0.00 | 0.00 | 0.00 | 32 | 1015.3 |
| 20260504214016 | 27 | 90 | 1.6 | 9.7 | 0.00 | 0.00 | 0.00 | 31 | 1015.3 |
| 20260504213516 | 27 | 113 | 1.6 | 8.0 | 0.00 | 0.00 | 0.00 | 33 | 1015.3 |
| 20260504213016 | 27 | 180 | 1.6 | 4.8 | 0.00 | 0.00 | 0.00 | 31 | 1015.2 |
| 20260504212516 | 27 | 180 | 1.6 | 8.0 | 0.00 | 0.00 | 0.00 | 32 | 1015.3 |
| 20260504212016 | 27 | 45 | 0.0 | 1.6 | 0.00 | 0.00 | 0.00 | 27 | 1015.2 |
| 20260504211537 | 27 | 203 | 0.0 | 4.8 | 0.00 | 0.00 | 0.00 | 28 | 1015.3 |
| 20260504211016 | 26 | 94 | 0.0 | 0.0 | 0.00 | 0.00 | 0.00 | 33 | 1015.4 |
| 20260504210536 | 26 | 113 | 0.0 | 4.8 | 0.00 | 0.00 | 0.00 | 30 | 1015.3 |
| 20260504210016 | 26 | 113 | 0.0 | 1.6 | 0.00 | 0.00 | 0.00 | 31 | 1015.3 |
| 20260504205517 | 26 | 248 | 0.0 | 3.2 | 0.00 | 0.00 | 0.00 | 30 | 1015.3 |
| 20260504205036 | 26 | 248 | 0.0 | 3.2 | 0.00 | 0.00 | 0.00 | 30 | 1015.3 |
| 20260504204516 | 26 | 203 | 1.6 | 4.8 | 0.00 | 0.00 | 0.00 | 30 | 1015.3 |
| 20260504204016 | 26 | 248 | 0.0 | 4.8 | 0.00 | 0.00 | 0.00 | 30 | 1015.4 |
| 20260504203537 | 26 | 248 | 0.0 | 3.2 | 0.00 | 0.00 | 0.00 | 30 | 1015.5 |
| 20260504203037 | 26 | 203 | 0.0 | 1.6 | 0.00 | 0.00 | 0.00 | 29 | 1015.5 |
| 20260504202516 | 26 | 293 | 1.6 | 4.8 | 0.00 | 0.00 | 0.00 | 30 | 1015.6 |
| 20260504202016 | 26 | 135 | 1.6 | 4.8 | 0.00 | 0.00 | 0.00 | 30 | 1015.6 |
| 20260504201516 | 26 | 113 | 1.6 | 4.8 | 0.00 | 0.00 | 0.00 | 31 | 1015.7 |
| 20260504201016 | 26 | 113 | 0.0 | 3.2 | 0.00 | 0.00 | 0.00 | 32 | 1015.8 |
| 20260504200516 | 26 | 113 | 1.6 | 3.2 | 0.00 | 0.00 | 0.00 | 30 | 1015.8 |
| 20260504200016 | 26 | 203 | 0.0 | 3.2 | 0.00 | 0.00 | 0.00 | 30 | 1015.9 |
| 20260504195516 | 26 | 113 | 1.6 | 6.4 | 0.00 | 0.00 | 0.00 | 32 | 1015.9 |
| 20260504195016 | 26 | 90 | 3.2 | 14.5 | 0.00 | 0.00 | 0.00 | 31 | 1016.0 |
| 20260504194516 | 26 | 90 | 1.6 | 8.0 | 0.00 | 0.00 | 0.00 | 30 | 1016.1 |
| 20260504194016 | 26 | 113 | 1.6 | 4.8 | 0.00 | 0.00 | 0.00 | 33 | 1016.2 |
| 20260504193518 | 26 | 90 | 1.6 | 9.7 | 0.00 | 0.00 | 0.00 | 34 | 1016.3 |
| 20260504193017 | 26 | 338 | 3.2 | 6.4 | 0.00 | 0.00 | 0.00 | 33 | 1016.4 |
| 20260504192516 | 25 | 90 | 3.2 | 9.7 | 0.00 | 0.00 | 0.00 | 33 | 1016.5 |
| 20260504192016 | 25 | 90 | 1.6 | 4.8 | 0.00 | 0.00 | 0.00 | 35 | 1016.5 |
| 20260504191536 | 25 | 0 | 3.2 | 9.7 | 0.00 | 0.00 | 0.00 | 34 | 1016.5 |
| 20260504191016 | 25 | 113 | 1.6 | 9.7 | 0.00 | 0.00 | 0.00 | 32 | 1016.6 |
| 20260504190516 | 25 | 90 | 1.6 | 8.0 | 0.00 | 0.00 | 0.00 | 34 | 1016.7 |
| 20260504190016 | 25 | 135 | 1.6 | 4.8 | 0.00 | 0.00 | 0.00 | 34 | 1016.8 |
| 20260504185536 | 25 | 113 | 1.6 | 4.8 | 0.00 | 0.00 | 0.00 | 33 | 1016.9 |
| 20260504185019 | 25 | 113 | 1.6 | 4.8 | 0.00 | 0.00 | 0.00 | 31 | 1017.0 |
| 20260504184516 | 25 | 90 | 0.0 | 1.6 | 0.00 | 0.00 | 0.00 | 30 | 1017.1 |
| 20260504184016 | 25 | 90 | 0.0 | 4.8 | 0.00 | 0.00 | 0.00 | 31 | 1017.1 |
| 20260504183536 | 25 | 90 | 1.6 | 9.7 | 0.00 | 0.00 | 0.00 | 36 | 1017.2 |
| 20260504183036 | 24 | 203 | 0.0 | 3.2 | 0.00 | 0.00 | 0.00 | 34 | 1017.2 |
| 20260504182516 | 24 | 180 | 1.6 | 3.2 | 0.00 | 0.00 | 0.00 | 34 | 1017.3 |
| 20260504182016 | 24 | 203 | 1.6 | 3.2 | 0.00 | 0.00 | 0.00 | 36 | 1017.3 |
| 20260504181516 | 24 | 180 | 0.0 | 4.8 | 0.00 | 0.00 | 0.00 | 37 | 1017.3 |
| 20260504181016 | 24 | 203 | 0.0 | 3.2 | 0.00 | 0.00 | 0.00 | 36 | 1017.3 |
| 20260504180516 | 24 | 113 | 1.6 | 4.8 | 0.00 | 0.00 | 0.00 | 38 | 1017.3 |
| 20260504180016 | 24 | 180 | 1.6 | 8.0 | 0.00 | 0.00 | 0.00 | 36 | 1017.4 |
| 20260504175516 | 24 | 225 | 0.0 | 4.8 | 0.00 | 0.00 | 0.00 | 38 | 1017.4 |
| 20260504175016 | 23 | 203 | 1.6 | 3.2 | 0.00 | 0.00 | 0.00 | 39 | 1017.5 |
| 20260504174517 | 23 | 45 | 0.0 | 3.2 | 0.00 | 0.00 | 0.00 | 39 | 1017.5 |
| 20260504174016 | 23 | 90 | 0.0 | 8.0 | 0.00 | 0.00 | 0.00 | 38 | 1017.7 |
| 20260504173516 | 23 | 113 | 1.6 | 6.4 | 0.00 | 0.00 | 0.00 | 37 | 1017.7 |
| 20260504173015 | 23 | 180 | 0.0 | 3.2 | 0.00 | 0.00 | 0.00 | 38 | 1017.7 |
| 20260504172538 | 23 | 113 | 1.6 | 6.4 | 0.00 | 0.00 | 0.00 | 40 | 1017.8 |
| 20260504172017 | 23 | 254 | 0.0 | 0.0 | 0.00 | 0.00 | 0.00 | 38 | 1017.8 |
| 20260504171537 | 23 | 90 | 1.6 | 8.0 | 0.00 | 0.00 | 0.00 | 37 | 1017.8 |
| 20260504171017 | 23 | 135 | 0.0 | 3.2 | 0.00 | 0.00 | 0.00 | 40 | 1017.9 |
| 20260504170538 | 23 | 315 | 1.6 | 6.4 | 0.00 | 0.00 | 0.00 | 39 | 1017.9 |
| 20260504151017 | 22 | 225 | 3.2 | 8.0 | 0.00 | 0.00 | 0.00 | 44 | 1019.3 |
| 20260504150517 | 21 | 270 | 1.6 | 6.4 | 0.00 | 0.00 | 0.00 | 42 | 1019.4 |
| 20260504150158 | 21 | 248 | 1.6 | 6.4 | 0.00 | 0.00 | 0.00 | 38 | 1019.5 |
| 20260504141019 | 20 | 248 | 1.6 | 6.4 | 0.00 | 0.00 | 0.00 | 64 | 1019.6 |
| 20260504140517 | 20 | 23 | 0.0 | 3.2 | 0.00 | 0.00 | 0.00 | 62 | 1019.5 |
| 20260504130517 | 13 | 248 | 1.6 | 3.2 | 0.00 | 0.00 | 0.00 | 80 | 1019.4 |
| 20260504110516 | 7 | 253 | 0.0 | 0.0 | 0.00 | 0.00 | 0.00 | 93 | 1018.6 |
| 20260504100536 | 7 | 248 | 0.0 | 3.2 | 0.00 | 0.00 | 0.00 | 93 | 1018.7 |
| 20260504081536 | 8 | 257 | 0.0 | 0.0 | 0.00 | 0.00 | 0.00 | 88 | 1018.7 |
| 20260504081016 | 8 | 257 | 0.0 | 0.0 | 0.00 | 0.00 | 0.00 | 88 | 1018.6 |
| 20260504080516 | 8 | 248 | 0.0 | 1.6 | 0.00 | 0.00 | 0.00 | 87 | 1018.6 |
| 20260504050517 | 11 | 257 | 0.0 | 0.0 | 0.00 | 0.00 | 0.00 | 81 | 1019.3 |
| 20260504045517 | 11 | 257 | 0.0 | 0.0 | 0.00 | 0.00 | 0.00 | 81 | 1019.3 |
| 20260504045017 | 11 | 257 | 0.0 | 0.0 | 0.00 | 0.00 | 0.00 | 81 | 1019.3 |
| 20260504044538 | 11 | 257 | 0.0 | 0.0 | 0.00 | 0.00 | 0.00 | 79 | 1019.2 |
| 20260504044017 | 11 | 257 | 0.0 | 0.0 | 0.00 | 0.00 | 0.00 | 80 | 1019.2 |
| 20260504043517 | 11 | 257 | 0.0 | 0.0 | 0.00 | 0.00 | 0.00 | 79 | 1019.2 |
| 20260504043017 | 11 | 257 | 0.0 | 0.0 | 0.00 | 0.00 | 0.00 | 79 | 1019.3 |
| 20260504042517 | 11 | 257 | 0.0 | 0.0 | 0.00 | 0.00 | 0.00 | 79 | 1019.3 |
| 20260504042017 | 11 | 257 | 0.0 | 0.0 | 0.00 | 0.00 | 0.00 | 79 | 1019.2 |
| 20260504041519 | 11 | 257 | 0.0 | 0.0 | 0.00 | 0.00 | 0.00 | 78 | 1019.2 |
| 20260504041017 | 11 | 257 | 0.0 | 0.0 | 0.00 | 0.00 | 0.00 | 79 | 1019.2 |
| 20260504040517 | 11 | 257 | 0.0 | 0.0 | 0.00 | 0.00 | 0.00 | 77 | 1019.1 |
| 20260504040017 | 11 | 257 | 0.0 | 0.0 | 0.00 | 0.00 | 0.00 | 77 | 1019.1 |
| 20260504035516 | 11 | 257 | 0.0 | 0.0 | 0.00 | 0.00 | 0.00 | 76 | 1019.0 |
| 20260504035016 | 11 | 257 | 0.0 | 0.0 | 0.00 | 0.00 | 0.00 | 76 | 1019.1 |
| 20260504034516 | 12 | 257 | 0.0 | 0.0 | 0.00 | 0.00 | 0.00 | 76 | 1019.2 |
| 20260504034036 | 12 | 257 | 0.0 | 0.0 | 0.00 | 0.00 | 0.00 | 74 | 1019.2 |
| 20260504033516 | 12 | 257 | 0.0 | 0.0 | 0.00 | 0.00 | 0.00 | 73 | 1019.2 |
| 20260504033016 | 12 | 257 | 0.0 | 0.0 | 0.00 | 0.00 | 0.00 | 73 | 1019.2 |
| 20260504032516 | 12 | 257 | 0.0 | 0.0 | 0.00 | 0.00 | 0.00 | 73 | 1019.1 |
| 20260504032016 | 12 | 257 | 0.0 | 0.0 | 0.00 | 0.00 | 0.00 | 71 | 1019.0 |
| 20260504031516 | 12 | 257 | 0.0 | 0.0 | 0.00 | 0.00 | 0.00 | 72 | 1019.0 |
| 20260504031015 | 12 | 257 | 0.0 | 0.0 | 0.00 | 0.00 | 0.00 | 70 | 1019.0 |
| 20260504030516 | 12 | 257 | 0.0 | 0.0 | 0.00 | 0.00 | 0.00 | 67 | 1018.9 |
| 20260504030017 | 12 | 257 | 0.0 | 0.0 | 0.00 | 0.00 | 0.00 | 67 | 1019.0 |
| 20260504025516 | 12 | 257 | 0.0 | 0.0 | 0.00 | 0.00 | 0.00 | 65 | 1019.0 |
| 20260504025016 | 12 | 257 | 0.0 | 0.0 | 0.00 | 0.00 | 0.00 | 70 | 1019.0 |
| 20260504024516 | 13 | 257 | 0.0 | 0.0 | 0.00 | 0.00 | 0.00 | 66 | 1018.9 |
| 20260504024016 | 13 | 257 | 0.0 | 0.0 | 0.00 | 0.00 | 0.00 | 66 | 1018.9 |
| 20260504023517 | 13 | 257 | 0.0 | 0.0 | 0.00 | 0.00 | 0.00 | 68 | 1018.8 |
| 20260504023058 | 13 | 257 | 0.0 | 0.0 | 0.00 | 0.00 | 0.00 | 68 | 1018.7 |
| 20260504022517 | 13 | 257 | 0.0 | 0.0 | 0.00 | 0.00 | 0.00 | 67 | 1018.7 |
| 20260504022017 | 13 | 257 | 0.0 | 0.0 | 0.00 | 0.00 | 0.00 | 68 | 1018.7 |
| 20260504021517 | 13 | 257 | 0.0 | 0.0 | 0.00 | 0.00 | 0.00 | 69 | 1018.6 |
| 20260504021018 | 13 | 257 | 0.0 | 0.0 | 0.00 | 0.00 | 0.00 | 66 | 1018.5 |
| 20260504020538 | 13 | 257 | 0.0 | 0.0 | 0.00 | 0.00 | 0.00 | 66 | 1018.4 |
| 20260504020017 | 13 | 257 | 0.0 | 0.0 | 0.00 | 0.00 | 0.00 | 63 | 1018.4 |
| 20260504015517 | 14 | 257 | 0.0 | 0.0 | 0.00 | 0.00 | 0.00 | 63 | 1018.3 |
| 20260504015018 | 14 | 257 | 0.0 | 0.0 | 0.00 | 0.00 | 0.00 | 65 | 1018.3 |
| 20260504014517 | 14 | 257 | 0.0 | 0.0 | 0.00 | 0.00 | 0.00 | 67 | 1018.2 |
| 20260504014017 | 15 | 257 | 0.0 | 0.0 | 0.00 | 0.00 | 0.00 | 64 | 1018.1 |
| 20260504013517 | 15 | 257 | 0.0 | 0.0 | 0.00 | 0.00 | 0.00 | 62 | 1018.2 |
| 20260504013017 | 15 | 257 | 0.0 | 0.0 | 0.00 | 0.00 | 0.00 | 61 | 1018.2 |
| 20260504012518 | 15 | 257 | 0.0 | 0.0 | 0.00 | 0.00 | 0.00 | 60 | 1018.1 |
| 20260504012018 | 15 | 257 | 0.0 | 0.0 | 0.00 | 0.00 | 0.00 | 61 | 1018.0 |
| 20260504011517 | 15 | 257 | 0.0 | 0.0 | 0.00 | 0.00 | 0.00 | 59 | 1017.9 |
| 20260504011017 | 16 | 257 | 0.0 | 0.0 | 0.00 | 0.00 | 0.00 | 60 | 1017.8 |
| 20260504010517 | 16 | 257 | 0.0 | 0.0 | 0.00 | 0.00 | 0.00 | 57 | 1017.8 |
| 20260504010017 | 16 | 257 | 0.0 | 0.0 | 0.00 | 0.00 | 0.00 | 57 | 1017.7 |
| 20260504005517 | 16 | 257 | 0.0 | 0.0 | 0.00 | 0.00 | 0.00 | 56 | 1017.7 |
| 20260504005017 | 16 | 257 | 0.0 | 0.0 | 0.00 | 0.00 | 0.00 | 54 | 1017.6 |
| 20260504004517 | 17 | 257 | 0.0 | 0.0 | 0.00 | 0.00 | 0.00 | 53 | 1017.6 |
| 20260504004017 | 17 | 257 | 0.0 | 0.0 | 0.00 | 0.00 | 0.00 | 52 | 1017.5 |
| 20260504003517 | 17 | 257 | 0.0 | 0.0 | 0.00 | 0.00 | 0.00 | 49 | 1017.5 |
| 20260504003017 | 18 | 257 | 0.0 | 0.0 | 0.00 | 0.00 | 0.00 | 48 | 1017.4 |
| 20260504002517 | 18 | 257 | 0.0 | 0.0 | 0.00 | 0.00 | 0.00 | 48 | 1017.4 |
| 20260504002017 | 18 | 257 | 0.0 | 0.0 | 0.00 | 0.00 | 0.00 | 47 | 1017.4 |
| 20260504001538 | 18 | 257 | 0.0 | 0.0 | 0.00 | 0.00 | 0.00 | 47 | 1017.4 |
| 20260504001017 | 19 | 257 | 0.0 | 0.0 | 0.00 | 0.00 | 0.00 | 46 | 1017.4 |
| 20260504000517 | 20 | 257 | 0.0 | 0.0 | 0.00 | 0.00 | 0.00 | 45 | 1017.4 |
| 20260504000017 | 20 | 257 | 0.0 | 0.0 | 0.00 | 0.00 | 0.00 | 44 | 1017.4 |
| 20260503235522 | 21 | 257 | 0.0 | 0.0 | 0.00 | 0.00 | 0.00 | 43 | 1017.3 |